Location: Avully
(45.9633°N, 6.0228°E)
Time: 19:41:52
(UTC+00:00)

Cosmos 1814 Rocket - Pass Details

Date: 23 May 2024
Orbit: 743 x 785 km, 74.1° (Epoch: 16 June)

Event Time Altitude Azimuth Distance (km) Brightness Sun altitude
Rises 02:35:22 0° 332° (NNW) 3,222 7.5 -11.6°
Reaches altitude 10° 02:37:49 10° 326° (NW) 2,299 6.6 -11.3°
Maximum altitude 02:42:44 43° 256° (WSW) 1,067 4.4 -10.7°
Drops below altitude 10° 02:47:40 10° 186° (S) 2,310 6.0 -10.1°
Enters shadow 02:49:39 - 181° (S) 3,054 6.7 -9.8°
